GFSCGP_850_thetae_018.txt.gz
Theta_e
315 311 312 313 312 313 313 314 315 313 313 314 314 312 310 309 311 311 310 311 312 314 315 316 316 316 316 318 317 315 314 314 314 313 312 312 312 312 312 312 311 311 311 310
313 313 313 312 312 313 314 315 313 313 313 314 313 313 309 310 310 311 312 313 314 315 315 316 316 315 315 316 315 315 314 314 313 313 313 312 312 312 312 312 312 312 312 311
313 314 313 313 312 314 313 314 314 314 312 314 312 314 311 311 312 312 313 314 315 315 315 315 315 315 315 315 314 314 314 313 313 312 312 312 312 312 312 312 312 312 312 311
314 312 313 313 314 313 315 313 314 314 315 317 312 316 313 310 310 310 313 313 313 314 314 315 315 315 315 314 314 314 314 313 312 312 312 312 312 312 313 312 311 311 311 310
315 312 313 315 314 313 315 314 314 315 315 315 314 312 312 310 312 312 311 313 314 314 314 314 314 314 314 313 313 313 312 312 312 312 313 313 313 313 312 311 311 309 308 308
314 313 313 314 314 314 314 315 313 313 313 316 316 314 313 312 312 312 312 315 315 314 314 313 313 313 313 313 312 312 312 313 313 313 313 312 311 311 310 309 308 307 307 307
315 316 315 315 316 314 314 313 313 316 316 318 315 314 314 313 311 312 313 315 315 315 314 312 313 313 313 313 313 313 312 312 312 312 311 310 308 306 306 305 304 304 305 305
317 314 316 315 316 316 315 314 312 314 317 316 314 316 315 314 314 313 314 314 313 313 313 313 313 313 312 312 312 312 311 311 310 308 306 305 305 304 303 302 301 303 304 303
317 316 315 316 316 315 317 315 314 313 312 313 314 314 313 311 311 312 311 312 312 312 312 312 312 312 312 312 311 309 309 307 306 305 304 305 304 304 302 301 300 302 302 302
316 318 316 315 316 315 315 313 315 311 312 319 316 316 315 313 312 310 310 312 312 312 313 313 312 312 312 311 308 307 307 305 304 303 302 303 303 302 302 301 300 301 302 301
314 314 314 313 314 315 315 315 313 313 313 313 316 316 312 311 311 311 311 312 312 312 312 311 311 311 311 310 308 307 306 303 302 301 301 301 301 300 300 300 300 300 299 299
313 310 312 315 313 313 313 315 312 310 314 311 310 313 310 310 311 311 312 312 312 312 311 311 311 311 311 309 307 307 304 302 303 302 302 301 300 299 299 299 298 297 296 296
313 310 310 308 312 311 314 314 312 309 307 314 314 311 309 310 311 312 312 312 312 311 311 310 310 311 310 306 305 307 307 305 304 304 303 301 299 298 299 296 296 295 295 295
314 311 310 310 310 310 313 314 313 313 313 313 313 313 312 311 309 312 313 312 312 311 310 310 310 308 304 302 302 303 304 306 305 303 301 299 297 297 296 295 295 294 294 294
311 314 311 311 311 311 313 313 313 313 312 315 313 312 312 309 311 312 312 312 311 311 310 309 307 303 302 302 302 304 306 305 303 302 299 297 296 297 297 295 294 295 294 292
310 310 312 311 310 310 311 311 312 312 312 312 313 312 309 312 312 311 310 310 310 309 307 305 303 302 302 303 305 305 304 303 301 299 297 296 295 296 294 294 294 294 294 294
311 307 306 307 308 307 306 308 310 311 310 310 311 309 310 311 310 309 310 309 309 308 305 303 302 302 304 304 303 303 301 300 298 298 298 298 296 296 295 294 292 292 291 290
305 303 305 306 305 310 310 309 310 310 308 308 307 309 311 310 309 309 309 308 306 305 302 302 303 300 297 296 296 297 299 298 297 297 296 296 294 293 293 292 292 290 289 288
307 304 308 313 311 309 312 309 311 310 309 309 309 311 310 309 308 308 308 307 305 301 302 302 297 296 296 297 296 296 297 297 295 294 293 292 292 292 291 290 288 288 287 287
304 300 303 308 312 312 308 307 312 311 310 308 312 310 309 309 309 309 307 304 301 302 301 296 295 295 296 296 296 296 296 295 294 292 292 291 290 289 288 287 287 287 286 286
303 306 311 310 312 310 306 307 308 308 309 311 310 310 309 307 307 303 300 299 302 301 297 296 295 295 295 295 296 296 295 295 292 291 291 291 290 289 288 286 286 286 285 284
306 304 303 304 307 307 307 309 309 309 309 310 310 309 309 305 304 300 298 299 301 300 297 295 294 294 294 294 294 295 294 293 292 291 290 290 289 287 286 286 285 285 284 283
308 308 308 308 306 307 308 309 310 310 309 309 308 308 306 302 299 298 298 300 301 298 295 294 293 295 294 293 292 292 292 291 291 290 290 289 287 286 285 285 284 284 284 283
308 309 307 308 309 308 311 311 312 310 309 309 306 303 299 298 297 299 300 301 299 297 295 293 293 294 292 292 291 291 291 291 290 289 287 287 286 286 285 285 284 283 282 282
310 310 309 310 311 311 311 311 310 310 307 304 301 300 298 297 297 299 299 300 299 296 294 293 293 293 292 292 292 291 290 289 288 287 287 286 286 285 285 284 283 282 281 281
311 310 310 311 311 311 310 308 307 304 299 297 297 297 298 299 299 298 297 297 297 296 294 293 292 292 292 292 292 290 289 288 287 287 287 287 286 285 284 283 283 282 281 280

GFSCGP_850_thetae_021.txt.gz
Theta_e
314 316 315 313 313 313 313 314 316 314 313 316 316 315 313 311 312 312 312 312 312 314 319 321 319 317 316 317 320 320 317 315 314 313 313 312 312 312 312 312 312 311 311 311
315 315 313 312 312 313 314 315 314 314 313 316 317 316 312 312 311 310 312 313 314 314 315 315 316 316 315 316 317 316 315 314 314 313 312 312 311 312 312 312 313 313 312 312
316 313 312 313 314 316 315 315 315 315 314 314 315 317 315 312 312 312 312 313 314 314 315 315 315 315 315 315 315 315 314 314 312 312 311 311 311 312 312 312 313 312 311 311
314 311 313 315 315 314 317 313 315 315 318 320 314 320 316 312 313 312 312 313 313 314 314 313 314 313 313 313 313 312 312 312 312 312 312 312 312 311 312 311 310 310 309 308
314 313 315 317 314 313 317 314 315 316 318 318 318 318 317 314 315 314 314 314 315 315 313 312 312 312 312 312 312 312 312 312 312 312 312 312 311 310 308 307 306 305 305 304
314 313 313 314 313 314 314 316 314 315 317 322 318 317 318 316 314 315 314 312 313 313 312 311 312 312 312 312 312 312 312 312 312 311 311 312 312 310 307 305 304 303 302 301
316 316 315 314 317 316 317 316 319 323 324 323 316 316 317 314 314 314 313 311 312 312 313 312 312 312 312 312 312 312 311 312 312 312 311 310 307 304 303 302 302 301 301 300
318 317 317 315 316 316 317 317 320 318 321 321 315 319 318 313 312 312 312 311 312 312 312 312 312 312 312 312 312 311 311 312 311 309 305 303 302 302 300 300 299 300 300 300
319 317 315 315 315 315 317 320 315 317 314 319 318 316 315 313 312 312 312 312 312 312 313 312 311 311 311 311 311 310 309 306 305 303 301 301 301 301 300 299 299 299 300 300
316 320 315 315 315 314 316 314 319 318 321 320 319 318 318 315 314 312 313 313 312 312 311 311 310 311 311 311 311 308 307 307 304 303 303 303 303 301 299 299 298 299 299 299
314 316 315 313 316 317 317 318 316 316 317 322 320 319 315 314 313 313 312 312 312 311 311 310 310 310 311 311 308 304 303 305 306 305 304 304 303 301 299 298 298 298 298 297
313 313 316 315 313 313 314 315 314 317 316 316 317 316 312 313 312 312 312 312 312 312 310 310 310 309 309 309 305 302 302 303 305 305 305 304 302 300 298 296 297 296 296 296
314 314 313 310 313 312 316 315 312 311 311 317 318 316 310 311 311 311 312 313 310 310 310 310 310 307 307 307 304 303 302 302 304 305 303 301 299 298 297 297 296 295 295 295
313 312 312 313 311 311 314 314 313 315 317 315 316 315 314 313 312 312 312 310 310 310 310 310 308 306 303 302 303 303 302 301 303 302 301 299 297 296 296 295 295 294 294 294
313 316 313 313 313 312 313 314 314 315 315 317 316 315 314 313 312 312 310 310 310 310 310 308 304 302 302 303 301 297 296 296 298 299 297 298 297 296 295 294 294 294 293 292
311 314 312 313 311 311 312 312 312 313 314 314 314 315 313 311 312 310 310 309 309 308 306 304 302 301 302 298 296 296 296 297 298 297 297 296 297 297 296 293 292 292 292 291
312 312 311 313 308 309 312 309 311 312 312 313 313 312 310 312 310 310 309 309 308 306 303 301 302 301 296 295 295 296 296 296 296 296 294 294 294 293 293 292 292 291 290 289
307 308 308 314 308 315 312 310 311 311 311 310 310 309 310 312 310 308 308 307 306 303 300 301 301 297 295 295 295 296 295 296 295 294 293 292 292 291 291 290 288 287 287 287
307 307 310 313 312 312 313 311 311 311 312 309 309 311 311 310 308 311 307 306 303 300 301 302 298 297 295 294 295 295 296 295 294 293 291 292 291 290 290 289 288 287 286 286
305 303 311 311 314 315 312 308 311 310 312 308 311 310 310 310 311 310 304 303 299 300 302 300 298 295 294 293 294 294 294 295 295 293 292 291 290 290 289 287 286 286 285 285
306 307 311 312 311 312 309 308 308 312 313 311 311 309 309 309 308 303 302 298 299 300 301 299 297 294 293 294 293 292 292 292 293 292 290 290 290 289 287 286 285 285 285 284
309 308 307 306 310 311 306 309 311 311 309 310 309 308 307 304 303 300 298 299 299 299 301 298 296 294 293 293 292 291 291 291 291 291 290 290 289 287 286 285 285 285 284 283
311 310 311 310 311 307 307 309 309 308 309 308 307 304 302 300 298 297 297 297 297 299 300 298 295 294 293 293 292 291 291 291 291 290 290 288 287 286 285 285 285 284 283 282
308 307 309 309 311 310 311 311 310 309 308 306 304 301 300 297 297 297 297 297 296 296 298 297 296 294 293 292 292 292 292 291 289 289 287 287 287 286 285 285 284 283 282 281
310 309 310 310 311 311 310 310 309 306 305 303 299 297 296 295 295 295 295 296 296 297 296 296 296 294 293 292 292 292 291 289 289 288 287 287 287 286 285 284 283 283 282 281
310 311 311 312 311 311 309 305 305 302 300 296 295 294 295 294 293 293 293 293 293 293 293 295 295 295 293 292 291 289 289 288 288 287 287 287 287 286 285 284 283 283 281 280

GFSCGP_850_thetae_024.txt.gz
Theta_e
318 321 321 319 319 318 318 318 319 318 318 320 321 319 318 317 318 318 318 318 317 318 319 318 322 321 317 316 318 323 324 322 318 317 316 317 316 314 313 313 312 311 312 313
320 320 318 317 317 318 319 319 319 319 318 320 321 319 318 317 317 317 318 318 318 317 317 316 316 314 314 315 317 318 317 316 316 315 313 312 311 312 312 313 313 313 312 312
319 317 316 317 320 320 320 320 320 320 320 320 321 320 319 317 316 316 317 317 316 316 316 315 315 314 314 314 314 314 314 314 313 312 313 313 313 313 313 312 312 311 310 307
318 316 318 319 319 320 320 318 320 320 322 322 321 323 319 318 318 318 318 318 318 316 315 314 315 314 313 313 312 312 312 312 312 312 312 311 312 312 312 311 310 310 308 306
316 318 319 320 319 319 321 319 320 321 322 322 322 322 321 318 319 319 318 317 316 315 315 314 314 314 314 312 312 312 313 312 311 311 312 315 314 312 311 313 311 307 306 305
318 316 319 320 318 318 319 320 320 321 323 325 323 323 323 320 319 319 317 316 316 315 315 314 314 314 314 314 313 313 312 312 311 311 310 311 308 306 307 306 305 304 303 303
319 319 319 319 320 320 321 322 323 326 326 325 321 322 323 318 318 317 317 316 315 315 315 315 314 314 314 314 313 312 312 311 310 309 307 306 305 305 304 304 303 303 302 302
321 322 320 319 319 321 321 322 325 323 322 323 320 322 322 317 316 315 315 315 315 315 315 315 314 314 314 313 313 312 312 311 309 308 306 303 300 303 304 303 303 302 301 301
321 320 319 318 318 319 322 323 320 322 320 324 321 320 319 317 316 316 316 315 315 315 314 314 314 314 313 313 313 312 310 309 309 307 306 305 305 304 304 303 301 300 299 300
320 322 319 317 318 319 320 319 324 322 330 321 318 320 320 319 318 316 316 315 315 314 314 314 313 313 312 312 311 310 308 308 308 307 307 305 305 304 302 300 299 299 299 299
317 319 319 317 319 320 321 321 320 321 322 324 322 318 320 319 318 316 315 315 315 314 314 313 312 311 311 310 309 307 307 307 307 307 305 304 304 302 300 299 298 298 298 298
318 319 317 315 316 317 318 318 318 321 320 320 320 317 316 317 316 315 315 315 315 314 312 312 311 311 309 308 306 306 306 305 304 303 302 302 302 300 299 298 297 297 296 296
318 318 315 316 318 318 319 318 317 316 317 318 321 318 315 315 315 315 315 314 313 312 312 311 311 310 308 305 305 304 302 300 299 300 300 301 300 299 298 297 295 295 294 294
316 318 315 314 314 314 314 314 315 317 320 317 318 317 316 316 315 315 315 313 313 312 312 311 310 308 305 304 302 299 299 298 299 299 299 299 299 297 296 296 294 295 295 295
318 317 317 316 316 315 316 316 315 316 317 318 317 316 316 315 315 314 314 313 312 312 311 310 307 304 303 301 298 298 298 298 299 298 298 298 298 297 297 296 294 294 295 294
317 319 316 317 315 315 315 315 315 316 316 316 316 317 315 313 313 314 313 312 312 311 310 307 303 303 301 298 297 297 298 298 298 297 297 297 295 295 295 295 294 292 291 290
318 319 317 321 313 314 318 315 314 315 315 315 316 315 313 313 313 313 312 312 311 310 307 302 303 301 299 298 297 297 298 298 297 296 296 295 294 293 292 291 291 290 290 289
314 316 313 319 316 322 315 314 314 314 314 314 314 314 313 313 313 312 312 310 309 303 301 301 302 300 299 297 296 296 297 297 296 295 295 293 293 292 291 291 290 289 288 288
314 315 315 317 316 315 314 313 314 313 314 314 313 313 313 312 312 313 309 304 303 299 300 302 301 299 298 297 296 296 296 296 296 294 294 293 292 291 290 290 289 288 287 287
311 312 318 312 317 316 314 313 312 312 315 313 313 312 312 310 311 312 302 302 300 300 301 301 300 299 298 296 295 295 294 293 294 293 292 292 291 290 290 288 287 287 286 286
311 312 315 314 316 315 314 311 310 315 316 311 311 311 309 309 306 302 301 299 300 300 300 300 299 299 297 296 295 294 293 293 292 292 292 291 290 289 287 287 287 286 286 286
316 316 314 312 314 315 310 311 314 313 312 311 312 309 308 305 302 299 299 299 299 298 297 299 299 298 297 296 295 294 293 293 292 292 291 290 289 288 287 287 286 286 286 285
315 314 315 314 315 313 312 311 311 312 312 310 307 304 303 301 299 299 299 299 298 299 299 298 298 297 296 296 295 294 294 293 292 291 290 289 288 287 287 287 286 286 285 284
314 312 314 314 312 313 313 312 309 308 307 304 303 302 299 299 298 298 297 297 297 297 296 295 295 295 295 296 295 295 294 292 291 290 289 288 288 287 287 286 286 285 284 283
314 313 313 314 313 312 312 310 307 305 303 301 298 297 297 298 297 295 295 294 294 294 294 294 294 295 295 295 295 294 292 291 290 289 288 288 287 287 286 285 285 283 283 281
312 314 314 314 312 312 307 305 303 303 298 297 297 297 297 295 294 293 293 293 293 293 294 294 293 293 293 293 293 293 291 289 289 288 288 287 287 286 285 285 284 284 282 281

GFSCGP_850_thetae_030.txt.gz
Theta_e
321 322 323 321 320 319 319 319 320 321 321 320 320 321 322 322 322 322 322 322 323 323 322 323 324 323 323 323 326 327 329 328 328 326 323 321 320 318 318 316 316 316 316 315
321 321 321 320 320 319 320 321 322 322 321 320 322 322 321 321 322 322 322 322 321 321 321 321 321 320 320 321 320 320 321 321 319 317 317 317 317 316 316 316 317 315 315 315
322 321 319 319 320 321 321 321 324 322 322 322 321 322 321 321 321 321 321 321 320 320 320 321 321 320 319 319 318 318 317 317 315 315 316 316 316 315 316 316 315 315 315 314
321 319 320 320 321 321 322 323 322 321 322 322 323 323 322 321 321 321 322 321 319 319 320 320 320 320 319 319 318 317 317 316 316 314 315 316 315 316 316 315 312 312 311 308
321 320 321 322 322 321 323 322 322 322 323 323 323 324 323 322 321 322 321 321 320 320 320 319 319 319 319 318 318 317 316 316 315 314 314 313 313 312 311 310 309 308 307 307
321 320 322 322 321 321 321 323 324 324 324 328 325 323 323 322 322 322 321 320 320 319 319 319 318 318 318 318 318 317 316 316 315 314 313 312 311 310 309 308 308 307 307 306
322 322 322 321 322 323 323 323 331 332 332 331 326 325 325 323 323 322 321 320 320 319 319 318 318 318 318 317 317 317 316 315 314 312 312 311 310 310 309 308 308 307 306 303
323 325 323 321 322 322 323 322 332 329 332 330 324 323 324 322 321 320 320 319 319 319 318 317 317 317 317 316 315 314 315 314 312 311 310 310 310 310 308 307 307 306 304 301
323 324 321 320 320 321 322 326 321 322 327 329 322 324 323 321 320 319 319 319 319 318 318 317 317 316 315 314 314 313 312 311 310 310 309 309 307 307 306 305 304 302 301 300
321 325 321 319 319 322 321 320 324 329 329 325 320 321 324 321 321 320 320 319 318 318 317 317 316 315 314 314 313 312 310 310 309 308 305 303 302 303 303 302 302 301 300 299
319 322 322 319 320 319 321 322 322 321 323 326 325 321 319 319 320 320 319 318 317 317 317 316 315 314 314 313 311 310 309 308 305 302 301 300 301 301 301 301 301 300 299 297
318 320 323 319 318 319 319 320 320 328 322 325 326 323 318 318 318 318 318 317 317 317 316 315 314 314 313 312 310 308 307 303 301 300 300 300 301 300 301 300 299 297 298 297
320 323 326 322 321 320 318 318 318 318 321 320 323 319 318 318 317 317 317 317 316 317 315 314 313 313 312 310 309 307 303 300 300 300 300 300 300 300 299 297 299 296 296 296
319 320 319 321 318 317 316 316 316 317 323 321 321 319 318 318 318 317 315 316 315 315 314 313 313 312 310 308 307 304 301 300 299 300 300 299 299 299 296 297 296 295 295 295
321 322 320 319 317 316 315 315 315 316 317 318 319 317 317 317 317 316 315 314 314 314 314 312 310 308 307 306 305 302 301 299 299 299 299 299 298 297 295 295 295 295 294 293
320 322 321 320 317 316 314 314 316 316 316 316 317 317 317 316 316 315 315 314 313 313 312 310 307 305 304 304 303 302 300 299 298 298 298 298 297 296 295 295 294 294 293 293
321 324 322 323 318 317 322 319 316 316 316 316 318 316 316 315 315 314 313 312 312 310 308 306 305 304 304 304 302 301 300 299 298 297 297 297 297 295 294 294 294 293 292 290
321 320 319 319 317 321 316 315 315 315 315 315 315 316 315 314 313 312 310 309 308 306 305 304 303 303 304 302 301 301 301 299 298 297 296 296 296 294 294 294 293 292 290 289
319 320 318 322 319 316 316 316 316 316 316 315 316 315 314 313 313 311 308 306 305 304 303 303 303 302 300 300 301 301 300 299 298 298 296 296 294 294 294 293 292 290 289 289
317 320 321 317 316 318 317 315 314 314 316 316 315 314 312 311 312 310 306 305 303 303 302 301 301 300 300 299 298 298 298 298 298 297 296 296 295 294 293 292 291 289 289 288
314 314 316 317 316 316 315 314 313 316 317 315 312 310 309 308 307 306 304 303 303 302 301 299 298 298 297 296 296 296 295 296 296 296 296 295 295 294 293 291 289 289 289 288
315 315 314 316 317 317 314 315 316 316 315 313 310 308 306 306 304 303 302 301 301 299 298 297 296 296 295 295 295 295 295 294 294 295 295 295 294 293 292 290 289 289 288 288
319 319 321 317 317 315 315 315 314 313 311 309 307 306 304 304 302 301 300 299 298 297 296 295 295 294 294 294 295 294 294 294 294 294 295 294 293 292 291 289 289 288 287 287
316 315 321 319 316 315 314 313 310 309 308 307 303 304 302 301 301 300 298 297 297 296 296 295 294 294 294 294 294 293 293 293 292 293 294 293 292 290 289 289 288 287 287 286
319 317 316 317 315 315 312 310 308 308 306 302 301 301 301 300 299 298 297 296 295 295 294 294 294 294 294 294 293 293 293 292 292 291 291 291 290 289 289 288 287 287 286 285
316 315 317 318 315 315 311 309 308 305 303 301 300 300 299 297 297 296 295 294 294 294 294 294 294 294 294 294 293 292 292 291 291 290 290 289 289 289 288 286 286 286 285 284

GFSCGP_850_thetae_033.txt.gz
Theta_e
320 318 319 317 317 318 318 318 317 317 318 318 317 317 318 320 320 320 321 321 321 322 322 323 323 323 324 325 325 326 328 327 327 324 323 321 321 319 318 316 316 316 316 315
319 318 318 318 318 318 318 319 320 318 318 317 317 319 317 319 319 321 320 321 321 321 321 320 322 323 324 323 322 323 323 325 321 318 318 318 318 316 316 315 316 316 316 315
319 318 318 319 320 320 320 321 320 320 319 319 319 318 318 318 320 320 320 320 320 321 320 320 319 318 318 317 317 316 316 316 315 316 316 316 316 316 316 316 315 313 311 311
318 319 319 320 321 319 322 322 321 320 319 319 318 317 318 317 318 319 319 319 320 320 320 320 319 318 317 317 317 316 316 316 316 315 315 314 313 313 314 313 311 310 310 309
319 319 321 322 321 320 322 320 321 321 320 320 320 319 317 318 321 319 319 320 319 319 319 319 319 318 318 317 317 316 316 316 315 315 314 313 312 311 310 309 309 308 308 307
318 321 320 320 320 320 321 321 321 321 321 321 323 321 318 318 321 319 319 319 319 319 319 318 318 318 318 317 317 317 316 316 314 312 312 312 311 310 310 309 308 308 308 307
320 320 320 320 320 321 320 320 323 324 323 324 326 326 326 321 320 319 319 319 319 319 318 318 318 318 317 317 317 315 315 315 314 312 311 310 310 310 309 308 307 307 306 305
322 322 319 320 320 320 321 321 320 326 324 324 321 324 321 318 320 320 320 319 319 319 318 317 317 317 317 316 314 314 313 312 311 310 310 309 308 306 305 305 305 304 303 303
324 321 319 319 318 319 319 321 319 320 321 321 321 321 319 318 319 319 319 319 318 318 317 317 317 316 315 314 314 312 312 311 310 310 309 308 304 303 302 302 302 302 302 301
320 322 319 318 318 322 320 318 319 321 321 324 320 323 325 320 319 318 318 318 318 318 317 317 316 315 314 314 313 312 311 309 309 308 307 305 302 300 299 301 301 301 301 300
317 320 320 318 317 317 318 320 319 319 317 318 318 318 317 318 318 317 318 317 317 317 316 315 314 314 314 313 312 310 309 308 307 304 303 301 299 300 300 300 300 300 297 297
316 319 317 318 317 318 318 319 319 315 319 317 315 315 315 315 317 317 317 316 316 317 317 314 314 313 312 311 309 308 308 307 303 303 301 299 300 299 299 299 300 297 296 295
318 318 316 319 319 319 317 317 316 317 312 315 311 313 315 317 317 316 316 315 314 313 313 313 312 311 310 309 307 307 305 303 302 301 299 299 299 299 299 299 297 294 294 294
318 319 317 316 317 315 315 314 314 314 312 315 315 316 315 317 317 315 314 314 314 314 313 313 312 311 310 307 306 305 303 302 301 300 299 298 298 299 298 297 295 293 294 294
318 318 319 318 315 315 314 313 312 312 313 313 313 316 316 315 314 314 314 313 313 312 310 309 307 307 305 304 304 304 302 302 301 299 298 298 298 298 298 297 295 294 293 293
318 318 316 315 317 315 313 313 314 314 315 316 315 315 313 314 313 312 312 311 310 309 307 306 305 304 303 303 303 303 302 301 300 300 299 298 297 298 298 297 293 293 293 293
319 313 311 314 314 312 312 315 314 314 314 314 315 314 313 312 311 310 310 309 307 305 305 305 303 302 302 301 301 302 301 301 301 300 299 298 297 296 296 294 293 293 292 291
314 313 310 307 308 306 315 313 314 315 314 314 314 314 312 312 310 310 309 307 305 304 303 301 301 301 301 301 300 299 298 297 297 297 297 298 297 296 295 294 294 293 292 290
318 309 305 311 311 312 314 315 315 314 315 314 314 312 311 310 310 308 307 303 302 302 302 302 301 299 298 297 296 296 295 295 295 295 295 295 295 295 294 294 293 292 290 289
315 309 306 302 304 306 312 313 313 313 310 313 312 310 309 308 305 305 304 302 301 301 301 298 297 296 295 295 295 294 294 294 294 294 295 295 294 294 294 293 292 290 289 289
306 310 306 303 303 308 312 313 313 310 310 311 311 309 307 306 306 305 302 301 301 299 298 297 296 295 294 294 294 294 294 294 294 293 293 293 293 294 294 291 290 289 289 288
307 307 310 310 309 308 313 314 310 311 313 311 309 308 306 305 303 302 301 300 298 297 296 296 295 295 294 294 294 294 294 293 293 293 293 291 293 293 292 292 290 289 288 288
313 311 310 309 308 310 314 314 314 314 311 310 307 306 304 303 301 301 299 297 297 296 295 295 294 294 294 294 294 294 293 293 293 292 291 290 292 291 291 290 289 288 288 287
313 315 310 312 314 314 314 313 312 311 310 309 307 303 301 301 300 298 297 296 295 294 294 294 293 294 294 294 293 294 293 293 293 292 291 290 290 290 289 289 289 288 286 286
312 315 314 311 312 312 311 311 310 309 307 304 301 300 300 298 297 296 295 295 294 294 293 293 293 293 293 292 292 293 293 293 292 292 290 289 289 289 289 288 287 286 286 285
316 313 307 307 314 313 311 309 309 306 303 301 301 300 299 297 296 295 295 294 293 293 292 291 291 292 291 291 292 292 293 292 292 291 289 288 288 288 287 286 285 285 285 284

GFSCGP_850_thetae_036.txt.gz
Theta_e
319 316 317 315 315 315 316 316 316 316 317 317 315 316 317 319 320 319 321 321 321 322 323 325 326 326 327 328 329 328 328 328 327 325 324 322 318 316 316 316 316 316 315 315
316 317 317 316 317 318 318 318 318 317 318 315 315 317 316 317 318 320 320 320 320 320 321 322 323 324 324 322 322 321 318 317 317 318 318 318 318 317 316 316 315 314 314 313
317 317 317 319 318 320 320 319 319 319 318 317 315 317 318 317 318 319 320 320 320 319 318 318 318 319 318 317 316 316 315 315 315 315 315 315 315 314 314 314 314 313 311 310
317 317 318 319 319 319 322 320 320 319 317 316 316 316 317 316 316 317 318 320 320 319 318 317 317 317 316 316 315 315 315 315 315 315 314 312 311 311 311 311 311 310 309 309
318 319 319 319 320 319 320 319 319 320 318 319 318 316 315 318 318 317 316 319 319 319 319 318 318 318 317 317 317 316 315 315 315 315 314 312 312 311 311 310 309 309 308 308
318 319 318 319 319 319 320 320 320 319 319 320 321 320 315 318 319 318 317 318 319 319 318 318 318 317 317 317 317 316 316 315 314 314 313 311 311 310 310 310 310 308 307 306
318 319 319 319 319 318 318 319 320 322 322 321 323 324 323 320 319 318 317 318 319 318 318 318 318 317 317 317 317 316 315 314 313 312 311 310 310 309 308 307 305 304 304 303
320 321 318 318 318 319 319 320 318 324 321 319 320 324 319 317 318 318 318 318 318 318 318 317 317 317 317 316 316 314 314 313 312 311 310 309 308 306 304 302 301 301 301 301
321 320 319 317 317 318 318 319 317 318 317 317 319 319 318 318 319 319 319 320 319 319 317 317 316 316 315 314 314 313 312 311 310 309 309 308 305 302 301 299 299 300 301 300
319 320 319 318 317 318 318 316 319 316 319 322 319 321 322 318 318 318 317 317 317 317 317 316 315 314 314 313 312 311 310 309 309 309 307 304 302 300 298 298 299 299 299 298
317 318 318 318 316 317 316 318 317 316 315 317 316 315 316 316 315 315 317 318 318 316 314 313 313 312 311 311 310 309 308 308 307 305 303 303 301 298 297 297 298 298 299 298
316 315 314 317 316 317 317 318 316 313 316 315 312 313 315 315 316 316 316 316 316 315 313 312 312 312 311 310 308 307 306 305 303 304 302 300 299 298 297 297 297 298 298 297
316 315 314 317 317 317 317 317 315 314 310 314 309 312 312 315 312 313 313 313 313 312 312 312 311 310 309 309 307 305 304 303 302 302 301 300 299 298 297 298 298 298 297 293
318 316 314 316 316 314 314 313 311 312 310 313 312 314 314 315 313 312 313 313 312 311 310 309 308 307 305 304 303 304 304 303 302 301 300 300 299 298 297 298 298 297 296 293
316 317 318 316 314 314 313 313 311 311 310 310 312 314 314 313 312 312 312 311 310 309 308 306 305 303 303 301 300 300 301 302 302 301 300 300 299 298 298 297 297 296 295 293
316 316 314 313 314 313 312 311 313 313 314 313 313 314 313 312 312 311 310 309 308 306 304 303 302 301 301 301 302 302 301 300 299 298 298 299 297 298 297 296 296 296 294 293
316 310 308 307 310 309 309 313 313 313 313 313 313 312 311 310 310 309 308 306 304 303 302 301 301 301 300 300 299 297 296 295 295 295 295 295 294 294 295 295 295 294 294 291
312 309 304 304 303 301 311 312 312 314 314 313 313 311 310 310 309 307 306 303 302 301 301 301 300 298 297 296 295 295 294 294 294 294 294 294 294 293 293 293 293 293 292 291
313 305 306 302 308 307 312 314 313 312 313 313 312 311 310 309 308 307 304 301 301 301 300 297 297 295 295 294 294 294 293 293 294 294 294 293 293 292 291 293 294 292 291 289
311 304 303 306 301 302 307 313 313 312 310 313 312 310 309 307 303 303 302 301 300 298 297 296 295 295 295 295 294 294 293 294 294 293 293 293 292 291 292 293 292 290 289 289
308 301 305 298 299 305 307 312 312 310 309 312 312 310 308 305 306 303 301 300 298 297 296 296 295 295 294 294 293 293 293 293 293 293 293 292 291 291 292 292 289 289 289 288
309 306 303 302 300 308 310 312 311 309 313 313 311 309 307 306 303 301 301 298 297 297 296 295 294 294 293 292 293 293 293 293 293 293 293 292 291 290 290 291 290 290 288 287
311 308 308 309 308 308 312 312 313 313 313 310 310 308 306 303 301 301 298 297 296 295 295 294 293 292 291 291 291 291 291 292 293 292 292 292 291 290 290 289 289 288 287 287
311 311 309 309 311 312 313 313 313 313 312 310 308 306 301 301 300 297 296 296 295 295 294 293 291 290 290 290 290 290 290 292 292 292 292 291 290 289 289 288 288 287 286 286
308 313 311 309 311 311 311 312 312 310 310 308 303 301 300 298 297 296 296 295 294 293 293 291 290 290 290 290 289 290 289 290 291 291 290 289 288 288 288 287 286 285 285 285
314 311 308 309 312 311 311 311 310 309 306 301 301 300 297 297 296 296 295 294 293 292 290 290 290 290 290 289 289 289 289 288 288 289 288 287 287 287 286 286 285 285 284 284

GFSCGP_850_thetae_039.txt.gz
Theta_e
318 314 316 314 315 316 316 314 316 315 315 314 315 314 313 317 319 319 320 322 323 325 325 327 327 326 326 328 329 329 328 327 325 325 325 323 322 319 317 316 316 316 316 315
315 317 316 316 317 316 316 315 316 317 316 314 314 314 313 316 317 319 319 320 321 321 322 323 323 326 327 326 324 320 318 317 318 318 318 318 316 315 315 315 315 315 314 313
316 317 317 317 318 319 319 317 318 318 316 314 315 315 317 316 318 319 319 320 320 321 321 321 322 320 319 317 316 315 315 315 315 315 315 314 312 310 310 309 308 309 310 310
316 317 318 317 317 318 321 319 318 318 315 313 314 317 317 316 316 317 318 318 318 318 317 317 316 316 315 315 315 315 314 314 313 311 310 310 310 310 310 309 309 310 309 309
317 318 318 318 319 318 320 317 318 318 316 317 318 314 314 316 317 316 317 318 318 318 317 317 317 317 317 317 316 316 315 313 313 312 312 312 311 310 310 309 309 309 309 307
317 318 318 318 318 318 318 319 318 317 317 319 320 319 314 316 317 316 316 318 319 318 318 318 317 317 317 317 316 316 316 315 313 313 312 311 311 310 310 309 308 307 304 302
318 318 316 318 319 317 317 317 319 322 321 321 319 322 319 317 316 316 316 318 318 318 318 318 317 317 317 317 316 316 315 314 313 312 312 311 310 309 307 304 302 300 299 300
319 320 317 316 318 318 318 318 316 324 321 317 318 322 319 316 317 318 318 318 318 318 318 318 318 317 317 317 315 313 313 313 312 311 310 309 308 305 303 302 299 297 298 299
319 319 318 316 317 317 317 317 315 317 315 315 317 318 317 316 316 316 317 317 318 319 318 318 318 317 316 314 313 313 312 311 310 309 308 306 303 303 302 298 297 297 297 298
318 319 318 316 316 316 315 315 318 314 317 320 317 319 318 317 317 317 317 319 319 318 315 315 316 314 313 312 312 311 310 309 308 307 305 303 301 299 299 298 297 297 297 297
316 315 316 317 315 316 316 316 314 315 314 316 315 315 312 316 315 315 316 316 315 314 314 314 313 314 313 311 311 308 307 306 305 303 303 301 300 300 299 298 298 298 298 298
315 313 314 316 314 316 316 317 313 309 314 312 311 311 314 313 314 315 315 313 312 313 312 312 311 311 310 310 308 305 304 303 303 302 302 301 300 300 298 298 298 298 298 298
315 313 313 315 315 315 317 314 314 311 308 313 307 310 311 312 312 312 312 311 311 311 311 311 310 308 306 304 303 303 304 303 302 301 301 300 300 298 298 298 298 297 297 296
315 315 312 314 315 313 312 311 312 311 310 312 311 312 313 312 311 311 312 312 311 309 309 307 306 304 302 301 300 301 301 302 302 302 301 299 298 299 297 297 296 295 296 295
313 315 316 313 312 313 313 311 310 310 309 309 309 311 312 311 310 312 312 310 309 307 305 303 302 301 301 301 301 301 300 299 298 296 295 295 294 295 296 294 294 295 294 295
313 314 313 313 312 311 312 310 309 310 310 309 313 314 311 312 311 311 309 308 307 304 302 301 301 301 300 299 298 297 296 295 295 294 293 294 294 293 293 293 293 293 293 294
313 309 306 305 308 306 304 308 311 312 312 311 313 311 310 310 310 309 308 307 304 302 301 301 301 299 296 296 295 295 294 294 294 293 294 293 293 293 292 292 291 292 293 293
309 306 301 302 302 304 307 308 310 311 313 312 311 310 310 310 310 309 308 304 301 301 301 300 297 296 295 295 294 294 294 293 293 293 293 293 293 293 292 290 291 293 293 291
310 303 305 303 305 305 310 312 313 312 312 311 310 309 310 309 308 307 306 302 301 301 298 296 296 295 295 295 294 293 293 293 293 293 293 293 292 292 291 290 292 292 291 290
307 302 303 304 300 301 306 312 312 310 309 312 311 309 309 307 304 303 306 301 301 298 297 296 296 295 294 293 293 292 291 292 291 292 292 293 292 292 291 290 291 291 290 289
307 300 304 295 298 304 305 311 311 310 306 312 313 311 309 304 307 306 302 301 298 297 296 295 295 294 293 292 291 290 290 290 290 292 292 292 292 292 291 290 290 290 289 289
309 305 302 302 300 308 308 310 310 309 310 313 312 311 309 308 306 302 301 298 296 296 296 295 294 293 291 290 290 290 290 290 290 291 292 292 291 291 291 289 289 289 288 287
309 307 307 307 308 307 311 310 312 311 312 312 312 311 309 306 302 301 299 297 296 296 295 294 293 291 290 290 290 289 289 289 289 290 291 291 291 290 289 289 289 288 287 286
309 309 307 308 309 308 310 312 312 312 313 313 311 309 307 303 301 299 297 296 295 295 294 293 291 290 290 290 289 289 289 289 289 288 289 289 289 287 287 288 287 286 286 285
308 310 309 308 309 311 312 312 312 313 312 311 309 307 304 301 299 297 296 295 294 294 293 291 290 290 290 289 289 289 289 289 288 287 287 288 287 287 287 286 286 285 284 284
310 309 307 308 311 312 312 313 312 311 310 308 304 301 300 298 297 296 295 294 294 293 290 290 290 290 290 289 289 289 289 288 287 287 287 287 286 286 286 284 283 283 283 283

GFSCGP_850_thetae_042.txt.gz
Theta_e
317 315 315 314 313 314 314 314 315 314 314 313 312 313 314 316 318 318 319 321 322 324 324 324 325 324 324 325 328 328 328 326 325 324 322 318 320 318 315 313 312 313 314 315
315 315 314 315 314 314 314 314 315 316 313 313 313 315 314 316 316 317 318 320 322 323 325 326 327 328 328 328 327 324 320 319 319 319 318 316 315 311 310 310 309 309 309 308
315 316 315 317 317 317 317 316 317 316 314 312 314 315 316 315 317 318 319 320 321 322 322 322 323 322 319 317 315 314 314 315 314 313 312 311 310 310 311 310 309 309 308 308
315 316 316 315 317 317 319 318 317 315 313 315 313 316 317 315 316 317 318 318 318 319 320 319 317 315 315 315 315 315 313 312 311 311 311 311 311 311 311 310 309 309 309 308
317 317 317 317 318 317 319 316 316 316 315 315 317 314 313 316 318 317 317 317 317 317 316 316 316 316 316 316 316 316 315 315 313 312 312 312 311 310 310 309 309 308 306 304
316 317 316 317 316 316 316 317 316 315 315 319 319 318 315 315 316 315 316 317 317 317 317 317 317 317 316 316 316 316 316 315 314 313 312 311 310 309 309 307 305 302 300 298
316 317 315 317 318 316 315 316 318 321 319 320 317 319 316 315 315 316 316 318 318 317 317 317 317 316 316 317 316 316 315 314 313 311 310 310 308 306 304 302 300 297 297 296
317 318 317 315 317 317 318 316 316 324 321 318 317 321 318 314 316 318 319 318 318 318 317 317 317 317 317 316 316 315 313 312 311 310 308 306 304 302 300 299 298 297 297 297
318 318 316 315 317 316 317 316 314 316 313 315 315 317 316 314 315 316 318 318 318 318 317 317 317 317 317 316 313 312 311 310 309 307 305 303 302 301 300 300 299 298 298 298
317 319 316 315 316 314 315 313 318 312 315 316 315 316 317 317 315 314 314 316 317 317 316 315 315 315 313 313 312 311 309 307 306 304 303 302 301 300 300 299 299 298 298 298
315 313 315 316 314 315 315 315 313 313 312 314 313 314 311 316 315 314 316 316 316 315 314 314 313 313 312 310 310 309 308 306 304 304 302 301 300 299 299 298 298 298 297 298
314 311 314 315 314 314 314 315 311 308 313 311 310 312 312 312 314 315 314 312 311 312 311 311 310 310 310 309 306 305 304 304 303 302 301 301 301 299 299 298 298 297 297 296
312 312 313 314 312 313 316 313 311 308 307 312 306 308 310 311 311 311 310 310 310 309 309 309 309 308 306 304 303 302 301 301 301 301 301 298 296 294 294 296 295 294 294 295
313 312 312 313 312 312 312 311 312 310 309 310 310 311 312 311 310 310 310 310 309 309 308 307 305 303 302 301 301 301 301 300 298 296 295 294 293 293 293 293 293 292 292 293
311 314 314 312 311 311 311 310 309 310 309 310 309 310 309 310 309 310 311 309 309 308 306 303 302 301 301 300 300 298 297 295 295 294 293 293 293 293 293 292 292 291 291 293
311 313 312 314 310 309 311 310 308 307 308 308 310 310 310 311 311 311 310 309 308 306 303 301 301 301 299 297 296 295 295 295 294 293 292 293 293 293 292 292 292 290 291 293
310 308 308 309 306 304 304 307 308 310 308 308 311 310 309 309 310 310 309 309 307 303 301 301 301 298 296 295 295 294 294 293 292 292 292 292 292 292 292 292 291 290 291 292
307 305 299 301 301 302 306 306 308 309 310 309 310 309 310 310 310 310 309 308 304 302 301 301 298 296 295 295 294 294 293 291 291 291 291 292 292 292 292 292 291 290 290 289
307 302 303 301 303 304 308 311 310 310 309 310 310 308 309 309 309 309 309 307 302 301 301 298 296 295 295 294 293 292 291 290 290 289 290 291 292 292 292 291 291 290 291 290
305 301 303 299 300 300 305 310 311 310 310 310 311 308 308 308 305 306 310 308 302 301 298 296 295 295 294 293 291 290 290 290 289 290 290 290 292 292 291 291 290 290 290 290
306 300 302 294 297 303 303 310 310 310 308 310 312 311 308 306 308 309 309 305 301 298 296 296 295 294 293 291 290 290 290 289 289 290 290 290 291 290 291 290 289 288 289 289
309 308 307 300 297 308 306 310 310 309 309 311 312 312 311 308 308 306 303 301 299 296 296 295 294 293 291 290 290 290 289 289 289 289 289 289 290 290 289 289 288 289 289 288
309 307 306 305 307 307 308 309 311 310 311 311 312 312 312 310 307 303 302 300 296 296 295 294 293 292 290 290 289 289 289 289 289 289 289 288 288 288 288 287 287 288 287 287
307 307 305 307 308 307 309 310 310 311 311 312 312 312 311 309 305 302 299 296 295 295 294 294 292 290 290 289 289 289 289 289 289 289 288 287 287 287 287 287 287 287 286 285
307 308 307 306 308 310 312 312 311 311 312 313 312 311 309 306 302 301 297 295 295 294 293 292 290 289 289 289 289 289 289 289 289 288 286 286 287 286 286 286 285 284 284 284
308 307 306 307 309 310 311 312 313 312 311 310 310 307 303 303 299 297 296 295 294 292 291 290 289 289 290 290 290 289 289 288 288 287 286 286 286 286 285 285 284 282 282 282